This demonstration page uses our WeatherBlox Daily Observations layout. Learn more.

Left ArrowRight Arrow

40.97296, -117.73568

Hourly Observations for November 26, 2022

Temp ( °F °C ) Dew Point ( °F °C ) Humidity (%) Winds ( mph kmh ) Pressure ( in mb ) Visibility ( mi km ) Precip ( " mm )
12:56 am 00:56 Clear 22 -5.6 11 -11.7 62 62 S 6 9 30.23 1024 10 16 0.00 0.00
1:56 am 01:56 Mostly Clear 26 -3.3 13 -10.6 57 57 S 5 7 30.19 1023 10 16 0.00 0.00
2:56 am 02:56 Cloudy 31 -0.6 14 -10 49 49 NNW 5 7 30.21 1023 10 16 0.00 0.00
3:56 am 03:56 Cloudy 31 -0.6 16 -8.9 53 53 SSW 3 6 30.21 1023 10 16 0.00 0.00
4:56 am 04:56 Cloudy 36 2.2 16 -8.9 44 44 Calm 30.20 1023 10 16 0.00 0.00
5:56 am 05:56 Cloudy 37 2.8 17 -8.3 44 44 SW 3 6 30.24 1024 10 16 0.01 0.13
6:56 am 06:56 Cloudy 37 2.8 17 -8.3 44 44 W 3 6 30.28 1025 10 16 0.00 0.00
7:56 am 07:56 Cloudy 37 2.8 27 -2.8 67 67 ESE 6 9 30.31 1026 9 14 0.01 0.13
8:56 am 08:56 Cloudy 38 3.3 30 -1.1 73 73 Calm 30.32 1027 10 16 0.01 0.13
9:56 am 09:56 Cloudy 39 3.9 31 -0.6 72 72 S 8 13 30.32 1027 10 16 0.00 0.00
10:56 am 10:56 Cloudy 41 5 32 0 70 70 SSE 5 7 30.32 1027 10 16 0.00 0.00
11:56 am 11:56 Mostly Cloudy 44 6.7 32 0 62 62 Calm 30.29 1026 10 16 0.00 0.00
12:56 pm 12:56 Mostly Cloudy 47 8.3 31 -0.6 53 53 S 6 9 30.28 1025 10 16 0.00 0.00
1:56 pm 13:56 Partly Cloudy 46 7.8 30 -1.1 53 53 VRB 3 6 30.26 1025 10 16 0.00 0.00
2:56 pm 14:56 Sunny 47 8.3 29 -1.7 49 49 SSE 5 7 30.24 1024 10 16 0.00 0.00
3:56 pm 15:56 Sunny 47 8.3 28 -2.2 47 47 Calm 30.24 1024 10 16 0.00 0.00
4:56 pm 16:56 Clear 35 1.7 24 -4.4 64 64 Calm 30.26 1025 10 16 0.00 0.00
5:56 pm 17:56 Clear 31 -0.6 23 -5 72 72 SE 5 7 30.27 1025 10 16 0.00 0.00
6:56 pm 18:56 Clear 25 -3.9 19 -7.2 78 78 SSE 7 11 30.27 1025 10 16 0.00 0.00
7:56 pm 19:56 Clear 25 -3.9 21 -6.1 85 85 SE 9 15 30.28 1025 10 16 0.00 0.00
8:56 pm 20:56 Clear 21 -6.1 17 -8.3 84 84 S 6 9 30.30 1026 10 16 0.00 0.00
9:56 pm 21:56 Clear 19 -7.2 15 -9.4 84 84 SE 3 6 30.31 1026 10 16 0.00 0.00
10:56 pm 22:56 Clear 19 -7.2 17 -8.3 92 92 SE 8 13 30.27 1025 10 16 0.00 0.00
11:56 pm 23:56 Clear 19 -7.2 15 -9.4 84 84 S 8 13 30.27 1025 10 16 0.00 0.00

Powered by AerisWeather